Weather History for Appleton, WI

Change the Weather History Date:

Thursday, June 27, 2013

  Actual Average Record
Temperature  
Mean Temperature 73 °F -  
Max Temperature 84 °F 79 °F 93 °F (1963)
Min Temperature 62 °F 60 °F 44 °F (1992)
Cooling Degree Days 8    
Growing Degree Days 23 (Base 50)    
Moisture  
Dew Point 65 °F    
Average Humidity 83    
Maximum Humidity 100    
Minimum Humidity 45    
Precipitation  
Precipitation 0.03 in - - ()
Sea Level Pressure  
Sea Level Pressure 29.76 in    
Wind  
Wind Speed 6 mph (West)    
Max Wind Speed 17 mph    
Max Gust Speed 20 mph    
Visibility 9 miles    
Events Rain , Thunderstorm    
Averages and records for this station are not official NWS values.
T = Trace of Precipitation, MM = Missing Value Source: NWS Daily Summary

Daily Weather History Graph

Daily Weather History Graph

Search for Another Location

Airport:

Trip Planner

Search our weather history database for the weather conditions in past years. The results will help you decide how hot, cold, wet, or windy it might be!

Date:

Astronomy

Jun. 27, 2013 Rise Set
Actual Time 5:12 AM CDT 8:42 PM CDT
Civil Twilight 4:35 AM CDT 9:18 PM CDT
Nautical Twilight 3:47 AM CDT 10:06 PM CDT
Astronomical Twilight 2:45 AM CDT 11:08 PM CDT
Moon 11:25 PM CDT (6/27) 10:24 AM CDT (6/27)
Length of Visible Light 16h 42m
Length of Day
15h 29m
Waning Gibbous, 76% of the Moon is Illuminated
Jun 27
Waning Gibbous
Jun 29
Last Quarter
Jul 8
New
Jul 15
First Quarter
Jul 22
Full

Hourly Weather History & Observations

Time (CDT) Temp. Heat Index Dew Point Humidity Pressure Visibility Wind Dir Wind Speed Gust Speed Precip Events Conditions
12:15 AM 73.4 °F - 66.2 °F 78% 29.78 in 10.0 mi SE 3.5 mph - N/A   Overcast
12:35 AM 71.6 °F - 68.0 °F 88% 29.77 in 10.0 mi South 4.6 mph - N/A   Overcast
1:15 AM 69.8 °F - 68.0 °F 94% 29.77 in 10.0 mi SE 5.8 mph - N/A   Mostly Cloudy
1:35 AM 69.8 °F - 68.0 °F 94% 29.78 in 10.0 mi Calm Calm - N/A   Mostly Cloudy
1:55 AM 71.6 °F - 68.0 °F 88% 29.77 in 10.0 mi South 4.6 mph - N/A   Mostly Cloudy
2:15 AM 71.6 °F - 68.0 °F 88% 29.78 in 10.0 mi Calm Calm - N/A   Light Drizzle
2:35 AM 71.6 °F - 68.0 °F 88% 29.77 in 5.0 mi SSE 3.5 mph - 0.01 in Rain Light Rain
2:55 AM 69.8 °F - 69.8 °F 100% 29.76 in 10.0 mi SSE 3.5 mph - 0.01 in   Overcast
3:15 AM 69.8 °F - 68.0 °F 94% 29.77 in 10.0 mi SSW 3.5 mph - N/A   Mostly Cloudy
3:35 AM 69.8 °F - 68.0 °F 94% 29.78 in 10.0 mi North 4.6 mph - N/A   Mostly Cloudy
3:55 AM 71.6 °F - 68.0 °F 88% 29.78 in 10.0 mi NE 8.1 mph - N/A   Overcast
4:15 AM 68.0 °F - 66.2 °F 94% 29.79 in 10.0 mi NE 11.5 mph - N/A   Overcast
4:35 AM 68.0 °F - 64.4 °F 88% 29.79 in 7.0 mi East 11.5 mph - N/A Rain Light Rain
4:55 AM 68.0 °F - 64.4 °F 88% 29.79 in 10.0 mi East 8.1 mph - N/A   Overcast
5:15 AM 66.2 °F - 62.6 °F 88% 29.78 in 10.0 mi ESE 3.5 mph - N/A   Overcast
5:45 AM 66.2 °F - 64.4 °F 94% 29.78 in 7.0 mi Calm Calm - N/A   Mostly Cloudy
6:45 AM 66.2 °F - 64.4 °F 94% 29.79 in 7.0 mi West 6.9 mph - N/A   Overcast
7:45 AM 71.6 °F - 66.2 °F 83% 29.78 in 7.0 mi West 6.9 mph - N/A   Scattered Clouds
8:45 AM 73.4 °F - 69.8 °F 88% 29.78 in 7.0 mi WNW 13.8 mph 19.6 mph N/A   Mostly Cloudy
9:10 AM 75.2 °F - 69.8 °F 83% 29.78 in 8.0 mi WNW 13.8 mph - N/A   Mostly Cloudy
9:45 AM 75.2 °F - 68.0 °F 78% 29.77 in 10.0 mi NW 10.4 mph - N/A   Scattered Clouds
10:45 AM 78.8 °F - 68.0 °F 69% 29.77 in 10.0 mi WNW 10.4 mph - N/A   Mostly Cloudy
12:45 PM 80.6 °F 82.3 °F 64.4 °F 58% 29.76 in 10.0 mi WNW 10.4 mph - N/A   Mostly Cloudy
1:45 PM 80.6 °F 82.7 °F 66.2 °F 61% 29.76 in 10.0 mi West 9.2 mph - N/A   Mostly Cloudy
2:45 PM 82.4 °F 83.9 °F 64.4 °F 54% 29.72 in 10.0 mi Variable 5.8 mph - N/A   Mostly Cloudy
3:45 PM 84.2 °F 85.6 °F 64.4 °F 51% 29.70 in 10.0 mi WSW 10.4 mph - N/A   Mostly Cloudy
4:45 PM 84.2 °F 84.4 °F 60.8 °F 45% 29.69 in 10.0 mi West 10.4 mph 18.4 mph N/A   Mostly Cloudy
5:45 PM 82.4 °F 82.9 °F 60.8 °F 48% 29.68 in 10.0 mi West 17.3 mph - N/A   Mostly Cloudy
6:50 PM 68.0 °F - 62.6 °F 83% 29.70 in 10.0 mi WSW 3.5 mph - N/A   Mostly Cloudy
7:45 PM 71.6 °F - 62.6 °F 73% 29.71 in 10.0 mi East 5.8 mph - N/A   Mostly Cloudy
8:45 PM 64.4 °F - 60.8 °F 88% 29.76 in 4.0 mi NE 8.1 mph 18.4 mph N/A Rain , Thunderstorm Thunderstorms and Rain
9:45 PM 64.4 °F - 62.6 °F 94% 29.75 in 10.0 mi SW 6.9 mph - N/A   Mostly Cloudy
10:45 PM 64.4 °F - 62.6 °F 94% 29.76 in 10.0 mi West 9.2 mph - N/A   Mostly Cloudy
10:55 PM 64.4 °F - 62.6 °F 94% 29.73 in 10.0 mi West 4.6 mph - 0.02 in   Mostly Cloudy
11:15 PM 64.4 °F - 62.6 °F 94% 29.73 in 10.0 mi WNW 6.9 mph - N/A   Scattered Clouds
11:35 PM 62.6 °F - 60.8 °F 94% 29.71 in 10.0 mi WNW 5.8 mph - N/A   Clear
11:55 PM 62.6 °F - 60.8 °F 94% 29.72 in 10.0 mi West 10.4 mph - N/A   Clear